Regional Weather Roundup
Issued by NWS Jackson, KY

Home | Current Version | Previous Version | Graphics & Text | Print | Product List | Glossary On
Versions: 1 2 3 4 5 6 7 8 9 10 11 12 13 14 15 16 17 18 19 20 21 22 23 24 25 26 27 28 29 30 31 32 33 34 35 36 37 38 39 40 41 42 43 44 45 46 47 48 49 50
557
ASUS43 KJKL 311010
RWRJKL

EAST KENTUCKY HOURLY WEATHER ROUNDUP
NATIONAL WEATHER SERVICE JACKSON KY
600 AM EDT TUE MAY 31 2016

NOTE: "FAIR" INDICATES FEW OR NO CLOUDS BELOW 12,000 FEET WITH
NO SIGNIFICANT WEATHER AND/OR OBSTRUCTIONS TO VISIBILITY.

* THESE REPORTS ARE NOT UNDER NWS QUALITY CONTROL AND MAY NOT
  REPORT WEATHER SUCH AS PRECIPITATION AND FOG.

KYZ079-080-083-085-087-088-110-112-115-119-120-311100
...EASTERN KENTUCKY...

CITY           SKY/WX    TMP DP  RH WIND       PRES   REMARKS
JACKSON        CLEAR     63  59  87 CALM      30.01R
LONDON         CLOUDY    61  58  90 CALM      30.00R
SOMERSET*      CLOUDY    59  59 100 CALM      30.01R
MONTICELLO*    CLOUDY    59  58  96 VRB5      30.01R
WILLIAMSBURG*  CLOUDY    59  59 100 CALM      30.00R
MIDDLESBORO*   FOG       60  60 100 CALM      30.01S VSB 1/2
HARLAN APT*    CLOUDY    59  59 100 CALM      30.03S VSB 1/2
HAZARD APT*    SUNNY     59  59 100 CALM      30.01R
BLACK MTN*       N/A     61  59  94 NW1         N/A
PIKE CO APT*     N/A     63  63 100 S3        30.02R
BIG SANDY APT* SUNNY     62  61  99 CALM      30.01R
MOREHEAD APT*  SUNNY     61  59  94 CALM      30.02R
ASHLAND*       MOCLDY    59  57  94 CALM      29.97S VSB 3/4
$$

KYZ035-036-041-042-044-050-067-078-099-311100
...CENTRAL KENTUCKY...

CITY           SKY/WX    TMP DP  RH WIND       PRES   REMARKS
MT STERLING*   CLEAR     59  59 100 CALM      30.02R
FLEMING/MASON* CLEAR     61  61  98 CALM      30.01R
DANVILLE*      CLEAR     59  57  94 CALM      30.01R
RICHMOND*      CLEAR     59  57  94 CALM      29.99R
LEXINGTON      CLOUDY    62  58  86 CALM      30.00R
FRANKFORT      CLOUDY    60  57  89 N3        29.99R
LOUISVILLE     MOCLDY    67  60  78 SE5       29.98S
LEBANON*         N/A     63  61  94 CALM      30.00R
GLASGOW*       PTCLDY    61  61 100 CALM      29.98R
BOWLING GREEN  CLOUDY    64  61  90 CALM      29.97S
$$

KYZ091>093-OHZ055-061-077-WVZ005-015-034-035-042-311100
...SOUTHERN OHIO/WEST VIRGINIA...

CITY           SKY/WX    TMP DP  RH WIND       PRES   REMARKS
COVINGTON      MOCLDY    67  58  72 CALM      29.99R
COLUMBUS       PTCLDY    61  59  93 CALM      29.98S
DAYTON         PTCLDY    63  55  75 CALM      30.00R
WILMINGTON     PTCLDY    64  58  80 CALM      29.99S
HUNTINGTON       N/A     60  58  92 CALM      29.99R
CHARLESTON     FOG       60  58  92 CALM      30.00S VSB 1/2
PINEVILLE*       N/A     58  56  90 MISG      30.08S FOG
BECKLEY          N/A     57  56  96 CALM      30.05S
BLUEFIELD      CLOUDY    61  57  87 CALM      30.07S
LOGAN CO APT*    N/A     64  63  94 CALM      30.01S
$$

VAZ002-007-008-TNZ017-027-036-066-071-311100
...SOUTHWEST VIRGINIA/EAST TENNESSEE...

CITY           SKY/WX    TMP DP  RH WIND       PRES   REMARKS
WISE*            N/A     63  61  94 CALM      30.07S
JONESVILLE*      N/A     57  57 100 CALM      30.03S
ABINGDON*        N/A     62  62  98 CALM      30.03S
BRISTOL        FOG       61  60  97 CALM      30.01R VSB 1/4
SEVIERVILLE*   SUNNY     61  57  88 CALM      29.98R
KNOXVILLE      PTCLDY    64  62  93 NE5       29.96R
OAK RIDGE      CLEAR     65  62  90 CALM      29.97F
CROSSVILLE     CLOUDY    60  57  89 CALM      30.01S
NASHVILLE      CLOUDY    65  60  84 CALM      29.97R
$$

...KEY TO REMARKS...
VSB - VISIBILITY IN MILES
WCI - WIND CHILL INDEX
HX  - HEAT INDEX

$$




USA.gov is the U.S. government's official web portal to all federal, state and local government web resources and services.